DAURIA DX 1
1 40071U 14037C 20044.48826806 .00000105 00000-0 20957-4 0 9992
2 40071 98.4479 216.0299 0008575 169.0655 191.0749 14.81333095302756
UKUBE-1
1 40074U 14037F 20044.44567747 .00000296 00000-0 42630-4 0 9990
2 40074 98.4514 225.3472 0004640 145.6023 214.5493 14.84191933303218
HODOYOSHI-1
1 40299U 14070B 20044.49350685 .00000548 00000-0 25573-4 0 9999
2 40299 97.3333 124.0827 0011335 276.8085 93.8531 15.23868856292786
CHUBUSAT-1
1 40300U 14070C 20044.46139215 .00000526 00000-0 25721-4 0 9994
2 40300 97.3043 117.2822 0018261 296.4202 130.3794 15.22355675292495
QSAT-EOS
1 40301U 14070D 20044.61096727 .00001358 00000-0 54353-4 0 9999
2 40301 097.3056 121.8661 0023621 270.7548 230.4998 15.26567111292881
FIREBIRD FU3
1 40377U 15003B 20044.56874736 .00001804 00000-0 73263-4 0 9994
2 40377 099.1118 079.1514 0125128 011.4842 348.9195 15.19600892278331
FIREBIRD FU4
1 40378U 15003C 20044.55426251 .00001793 00000-0 72760-4 0 9997
2 40378 099.1117 079.2245 0125285 011.4188 348.9837 15.19615240278336
GRIFEX
1 40379U 15003D 20044.16158183 .00001370 00000-0 61296-4 0 9994
2 40379 99.1180 71.3791 0134310 35.2313 325.7702 15.16074735277865
NO-84
1 40654U 15025D 20044.56036829 .00011910 00000-0 15183-3 0 8533
2 40654 54.9888 155.3372 0122259 223.0924 136.0471 15.51381612149629
DEORBITSAIL
1 40719U 15032E 20044.43860464 .00000294 00000-0 48922-4 0 9991
2 40719 97.8854 296.0543 0015009 251.3274 108.6307 14.76909841247649
NUDT-PHONESAT
1 40900U 15049B 20044.50621713 .00001920 00000-0 82965-4 0 9993
2 40900 97.4345 56.5596 0014273 66.5424 84.9081 15.23613828244163
XW-2A
1 40903U 15049E 20044.39037418 .00001535 00000-0 37180-4 0 9997
2 40903 97.3066 93.1593 0013451 5.0601 50.0818 15.42622352247192
XW-2C
1 40906U 15049H 20044.50879786 .00000332 00000-0 20733-4 0 9995
2 40906 97.4742 47.7282 0016520 87.2093 64.9834 15.15924735243327
XW-2D
1 40907U 15049J 20044.51477353 .00000571 00000-0 33003-4 0 9990
2 40907 97.4724 47.4249 0015872 85.1456 33.0351 15.16140776243346
LILACSAT-2
1 40908U 15049K 20044.53288547 .00000604 00000-0 36809-4 0 9992
2 40908 97.4867 45.9670 0017712 92.9419 21.3209 15.13956170243090
XW-2E
1 40909U 15049L 20044.59468178 .00001046 00000-0 54382-4 0 9996
2 40909 097.4627 050.7662 0015275 078.1792 039.6807 15.18192251243589
XW-2F
1 40910U 15049M 20044.51119714 .00000731 00000-0 39503-4 0 9997
2 40910 97.4670 49.8019 0016359 76.2333 75.5458 15.17700654243388
XW-2B
1 40911U 15049N 20044.49869275 .00000509 00000-0 29842-4 0 9997
2 40911 97.4743 48.0951 0015753 85.7631 65.2838 15.16067541243231
DCBB
1 40912U 15049P 20044.50349039 .00001035 00000-0 51021-4 0 9990
2 40912 97.4496 53.7990 0016306 58.3486 94.1418 15.20065187243731
TW-1C
1 40926U 15051B 20044.37604343 .00014082 00000-0 16705-3 0 9990
2 40926 97.1029 95.6157 0006428 181.6692 234.1446 15.61286918247483
TW-1A
1 40928U 15051D 20044.36986380 .00002360 00000-0 57335-4 0 9996
2 40928 97.1224 75.2044 0008926 286.3795 130.6164 15.41952239246090
IO-86
1 40931U 15052B 20042.70762257 .00000613 00000-0 -37404-5 0 9998
2 40931 6.0007 159.3068 0013310 283.6628 76.2153 14.76625652236499
LQSat
1 40958U 15057A 20044.54458709 -.00000016 00000-0 51415-5 0 9995
2 40958 097.8698 111.8844 0018013 186.9996 173.0963 14.73107856234126
AO-85
1 40967U 15058D 20044.57851173 .00000074 00000-0 27628-4 0 9532
2 40967 64.7749 149.9527 0173312 121.0067 240.8169 14.76069889143147
ATHENOXAT-1
1 41168U 15077C 20043.94925746 .00001758 00000-0 56807-4 0 9996
2 41168 14.9875 262.0755 0011475 182.0172 178.0103 15.14101229230294
ChubuSat-2
1 41338U 16012B 20044.42077036 .00000284 00000-0 15337-4 0 9995
2 41338 031.0041 061.1632 0013775 317.9242 042.0335 15.00243066218948
ChubuSat-3
1 41339U 16012C 20044.42927534 .00000268 00000-0 14026-4 0 9999
2 41339 31.0126 58.8977 0013784 325.5747 34.3994 15.00411466218949
Horyu-4
1 41340U 16012D 20044.38427849 .00000417 00000-0 24862-4 0 9995
2 41340 031.0059 048.2221 0013895 347.5316 012.4974 15.01415380219069
OUFTI-1
1 41458U 16025C 20044.22873968 .00001553 00000-0 82325-4 0 9999
2 41458 098.0977 148.3027 0163365 271.3005 086.9511 15.06440135208628
e-st@r-II
1 41459U 16025D 20044.50489001 .00000734 00000-0 41778-4 0 9999
2 41459 98.0960 148.1018 0164685 272.1297 86.1095 15.06028791208637
AAUSAT4
1 41460U 16025E 20044.56145056 .00002247 00000-0 11472-3 0 9994
2 41460 098.0921 150.0693 0154369 262.1081 096.2594 15.08170476208811
LO-87
1 41557U 16033B 20044.55085885 .00000968 00000-0 38399-4 0 9998
2 41557 097.4070 135.6134 0014110 163.6332 196.5365 15.27727254206707
NuSat2
1 41558U 16033C 20044.54601928 .00001146 00000-0 42425-4 0 9994
2 41558 097.4110 137.4584 0013181 161.7299 198.4418 15.29676719206790
Lapan A3
1 41603U 16040E 20044.58312801 .00000038 00000-0 48780-5 0 9996
2 41603 097.3281 101.9113 0011722 282.2115 215.0364 15.19795346202179
Swayam
1 41607U 16040J 20044.12584287 .00001146 00000-0 50317-4 0 9998
2 41607 97.3354 106.3643 0011553 268.2530 91.7384 15.23885075202331
Pratham
1 41783U 16059A 20044.38469461 .00000033 00000-0 15670-4 0 9994
2 41783 098.0355 103.2467 0033247 352.3277 007.7412 14.63036572180597
AlSat 1N
1 41789U 16059G 20044.44153862 .00000083 00000-0 24724-4 0 9997
2 41789 98.0388 105.8328 0027809 341.0341 18.9828 14.64296096180738
ScatSat
1 41790U 16059H 20044.57423663 .00000021 00000-0 16336-4 0 9994
2 41790 098.1790 088.4661 0004994 319.5916 040.4909 14.50900680179118
TY-1
1 41844U 16066D 20044.61761625 .00000795 00000-0 35012-4 0 9990
2 41844 097.4048 054.1886 0016714 066.1673 051.6468 15.24641821181245
Pegasus-1
1 41846U 16066F 20044.08952877 .00000165 00000-0 36272-4 0 9994
2 41846 098.6808 092.7216 0366183 246.3309 109.9051 14.37700573170959
CAS-2T
1 41847U 16066G 20044.59147425 .00000002 00000-0 11554-4 0 9992
2 41847 098.6739 093.7316 0364871 240.8177 115.6050 14.38039880171477
EO-88
1 42017U 17008BX 20043.74102414 .00001233 00000-0 50546-4 0 9995
2 42017 97.3756 113.0706 0007483 55.9098 304.2849 15.26134032166379
nSIGHT1
1 42726U 98067MF 20044.52928002 .00064028 00000-0 22738-3 0 9994
2 42726 051.6294 150.3630 0004401 003.9126 356.1913 15.88338539155684
CAS-4B
1 42759U 17034B 20044.32260730 .00000248 00000-0 28640-4 0 9993
2 42759 43.0205 354.5210 0012581 318.8541 171.9987 15.09741523147056
CAS-4A
1 42761U 17034D 20044.34038020 .00000171 00000-0 23894-4 0 9994
2 42761 43.0200 353.8050 0012892 319.7992 175.4990 15.09818954147059
UCLSat
1 42765U 17036A 20044.42054108 .00000936 00000-0 42397-4 0 9992
2 42765 97.3197 101.9183 0013026 105.0149 255.2531 15.23235034146953
NIUSat
1 42766U 17036B 20044.58682907 .00000700 00000-0 34010-4 0 9996
2 42766 097.3191 099.8880 0017240 098.3474 261.9718 15.21494174146708
LituanicaSAT 2
1 42768U 17036D 20044.30316983 .00001507 00000-0 65673-4 0 9991
2 42768 097.3244 101.6044 0016514 097.1640 263.1476 15.23589340146783
Aalto 1
1 42775U 17036L 20044.31903987 .00000552 00000-0 27358-4 0 9993
2 42775 97.3174 99.9777 0015601 98.6571 261.6433 15.21654819146643
URSA MAIOR
1 42776U 17036M 20044.58558063 .00000620 00000-0 30238-4 0 9991
2 42776 097.3185 100.4700 0015425 097.7355 262.5634 15.21817982146694
Max Valier Sat
1 42778U 17036P 20044.40243950 .00000645 00000-0 30844-4 0 9990
2 42778 97.3234 101.3906 0013979 101.6502 258.6305 15.22395323146704
Pegasus
1 42784U 17036V 20044.42101213 .00000829 00000-0 38196-4 0 9996
2 42784 097.3200 101.6563 0013609 105.8812 254.3926 15.22944932146748
